Flag for Japan Weather past 2 weeks in Yokosuka, Japan

Now
79 °F

Partly cloudy.


Feels Like: 82 °F
Forecast: 78 / 85 °F
Wind: 15 mph from South

Location: Tokyo International Airport

Current Time: Sep 2, 2015 at 1:51:37 AM

Latest Report: Sep 2, 2015 at 1:30 AM


Visibility: N/A

Pressure: 29.86 "Hg

Humidity: 89%

Dew point: 75 °F

Location of YokosukaLocation

Historic Weather in Yokosuka — Graph

°F

Yokosuka temperature yesterday

Maximum temperature yesterday: 79 °F (at 7:30 PM)
Minimum temperature yesterday: 72 °F (at 4:30 AM)
Average temperature yesterday: 75 °F

Past Weeks' High & Low Weather Summary

 TemperatureHumidityPressure
High88 °F (Aug 18, 4:30 PM)100% (Aug 26, 4:30 AM)30.01 "Hg (Aug 26, 4:30 AM)
Low66 °F (Aug 26, 12:00 AM)58% (Aug 24, 12:30 PM)29.50 "Hg (Aug 22, 2:30 PM)
Average76 °F84%29.80 "Hg
* Reported Midnight between Aug 17 and Aug 18 — Sep 2 12:30 AM, Yokosuka, Weather by CustomWeather, © 2015

Note: Actual official high and low records may vary slightly from our data, if they occured in-between our weather recording intervals... More about our weather records

Advertising

Yokosuka weather history for previous 24 hours

 ConditionsComfort  
Time TempWeatherWind HumidityBarometerVisibility
12:30 AM
Wed, Sep 2
79 °FPassing clouds.18 mph89%29.86 "HgN/A
12:00 AM79 °FPartly cloudy.18 mph94%29.86 "HgN/A
11:30 PM
Tue, Sep 1
79 °FPartly cloudy.16 mph94%29.86 "HgN/A
11:00 PM79 °FPassing clouds.17 mph89%29.89 "HgN/A
10:30 PM77 °FPassing clouds.17 mph94%29.89 "HgN/A
10:00 PM79 °FLight rain. Passing clouds.13 mph89%29.89 "HgN/A
9:30 PM79 °FPassing clouds.13 mph89%29.92 "HgN/A
9:00 PM79 °FPartly cloudy.13 mph89%29.92 "HgN/A
8:30 PM79 °FPartly cloudy.12 mph89%29.92 "HgN/A
8:00 PM79 °FScattered showers. Partly cloudy.10 mph89%29.92 "HgN/A
7:30 PM79 °FScattered showers. Partly cloudy.9 mph89%29.92 "HgN/A
7:00 PM77 °FSprinkles. Partly cloudy.10 mph94%29.92 "HgN/A
6:30 PM77 °FRain showers. Partly cloudy.7 mph94%29.92 "Hg4 mi
6:00 PM75 °FScattered showers. Partly sunny.2 mph94%29.89 "Hg4 mi
5:30 PM75 °FScattered showers. Partly sunny.3 mph94%29.89 "Hg5 mi
5:00 PM75 °FBroken clouds.5 mph94%29.89 "Hg6 mi
4:30 PM77 °FSprinkles. Fog.6 mph89%29.89 "Hg4 mi
4:00 PM75 °FSprinkles. Fog.7 mph94%29.92 "Hg4 mi
3:30 PM75 °FSprinkles. Broken clouds.5 mph94%29.92 "Hg4 mi
3:00 PM75 °FBroken clouds.5 mph94%29.92 "Hg4 mi
2:30 PM75 °FPartly sunny.7 mph94%29.92 "Hg4 mi
2:00 PM75 °FPartly sunny.3 mph94%29.95 "Hg4 mi
1:30 PM75 °FBroken clouds.10 mph94%29.95 "Hg4 mi
12:30 PM73 °FSprinkles. Fog.6 mph94%29.95 "Hg4 mi
11:51 AM73 °FSprinkles. Fog.8 mph94%29.98 "Hg4 mi
11:30 AM73 °FStrong thunderstorms. Fog.5 mph89%29.98 "Hg3 mi
11:00 AM73 °FRain showers. Partly sunny.1 mph89%30.01 "Hg4 mi
10:30 AM73 °FSprinkles. Partly sunny.1 mph94%30.01 "Hg6 mi
10:00 AM73 °FSprinkles. Partly sunny.2 mph89%30.01 "HgN/A
9:30 AM73 °FSprinkles. Partly sunny.5 mph89%29.98 "HgN/A
9:00 AM73 °FSprinkles. Broken clouds.3 mph89%29.98 "HgN/A
8:30 AM73 °FSprinkles. Broken clouds.2 mph89%29.98 "HgN/A
8:00 AM73 °FSprinkles. Broken clouds.7 mph89%29.98 "HgN/A
7:30 AM73 °FBroken clouds.5 mph89%29.98 "HgN/A
6:30 AM73 °FBroken clouds.7 mph94%29.98 "Hg6 mi
6:00 AM72 °FPartly sunny.8 mph94%29.98 "Hg6 mi
5:30 AM72 °FBroken clouds.9 mph94%29.98 "HgN/A
5:00 AM72 °FPartly cloudy.10 mph94%29.98 "HgN/A
4:30 AM72 °FPartly cloudy.9 mph94%29.95 "HgN/A
4:00 AM73 °FPartly cloudy.8 mph89%29.98 "HgN/A
3:30 AM73 °FPassing clouds.7 mph89%29.98 "HgN/A
3:00 AM73 °FPassing clouds.8 mph89%29.98 "HgN/A
2:30 AM73 °FScattered showers. Passing clouds.5 mph89%29.98 "HgN/A
2:00 AM73 °FScattered showers. Passing clouds.5 mph89%29.98 "HgN/A
1:30 AM73 °FLight rain. Partly cloudy.5 mph89%29.98 "HgN/A
1:00 AM73 °FLight rain. Partly cloudy.5 mph89%29.98 "HgN/A
Weather by CustomWeather, © 2015

See weather overviewHow to use our weather pages